Location: Gisborne
(38.6530°S, 178.0040°E)
Time: 03:31:09
(UTC+13:00)

Cosmos 2278 Rocket - Pass Details

Date: 24 January 2019
Orbit: 839 x 847 km, 71.0° (Epoch: 19 February)

Event Time Altitude Azimuth Distance (km) Brightness Sun altitude
Rises 23:30:04 0° 194° (SSW) 3,429 6.6 -26.7°
Reaches altitude 10° 23:32:50 10° 183° (S) 2,487 5.4 -26.9°
Maximum altitude 23:37:51 31° 122° (ESE) 1,464 3.4 -27.4°
Enters shadow 23:38:20 30° 112° (ESE) 1,477 3.4 -27.4°
